This demonstration page uses our WeatherBlox Daily Observations layout. Learn more.

Left ArrowRight Arrow

Hourly Observations for March 18, 2021

Temp ( °F °C ) Dew Point ( °F °C ) Humidity (%) Winds ( mph kmh ) Pressure ( in mb ) Visibility ( mi km ) Precip ( " mm )
12:54 am 00:54 Cloudy 35 1.7 29 -1.7 78 78 N 18 30 30.15 1021 9 14 N/A
1:54 am 01:54 Cloudy 34 1.1 29 -1.7 82 82 N 22 35 30.17 1022 9 14 N/A
2:54 am 02:54 Cloudy 34 1.1 29 -1.7 82 82 NNE 17 28 30.19 1022 8 13 N/A
3:26 am 03:26 Cloudy 34 1.1 29 -1.7 82 82 N 16 26 30.21 1023 8 13 N/A
3:54 am 03:54 Cloudy 35 1.7 29 -1.7 78 78 NNW 15 24 30.18 1022 8 13 N/A
4:41 am 04:41 Cloudy 35 1.7 29 -1.7 78 78 NNW 16 26 30.21 1023 10 16 N/A
4:54 am 04:54 Cloudy 35 1.7 28 -2.2 76 76 NNW 20 31 30.19 1022 10 16 N/A
5:54 am 05:54 Cloudy 35 1.7 28 -2.2 76 76 NNW 16 26 30.20 1023 10 16 N/A
6:54 am 06:54 Cloudy 35 1.7 28 -2.2 76 76 N 16 26 30.22 1023 10 16 N/A
7:54 am 07:54 Partly Cloudy 34 1.1 27 -2.8 76 76 N 16 26 30.24 1024 10 16 N/A
8:54 am 08:54 Sunny 36 2.2 28 -2.2 73 73 N 15 24 30.26 1025 10 16 N/A
9:54 am 09:54 Sunny 39 3.9 29 -1.7 67 67 N 22 35 30.27 1025 10 16 N/A
10:54 am 10:54 Sunny 42 5.6 30 -1.1 62 62 N 21 33 30.29 1026 10 16 N/A
11:54 am 11:54 Sunny 45 7.2 31 -0.6 58 58 N 23 37 30.32 1027 10 16 N/A
12:54 pm 12:54 Sunny 48 8.9 31 -0.6 52 52 NNE 20 31 30.31 1026 10 16 N/A
1:54 pm 13:54 Sunny 51 10.6 30 -1.1 44 44 NNE 18 30 30.30 1026 10 16 N/A
2:54 pm 14:54 Sunny 52 11.1 30 -1.1 43 43 undefined N/A 30.29 1026 10 16 N/A
3:54 pm 15:54 Sunny 53 11.7 31 -0.6 43 43 N 16 26 30.30 1026 10 16 N/A
4:54 pm 16:54 Sunny 53 11.7 30 -1.1 41 41 NNE 20 31 30.30 1026 10 16 N/A
5:54 pm 17:54 Sunny 53 11.7 29 -1.7 40 40 undefined N/A 30.31 1027 10 16 N/A
6:54 pm 18:54 Sunny 50 10 29 -1.7 44 44 NNE 20 31 30.34 1027 10 16 N/A
7:54 pm 19:54 Clear 44 6.7 29 -1.7 55 55 NNE 13 20 30.37 1028 10 16 N/A
8:54 pm 20:54 Clear 39 3.9 27 -2.8 62 62 N 10 17 30.40 1030 10 16 N/A
9:54 pm 21:54 Clear 37 2.8 27 -2.8 67 67 N 10 17 30.43 1030 10 16 N/A
10:54 pm 22:54 Clear 31 -0.6 25 -3.9 79 79 N 9 15 30.44 1031 10 16 N/A
11:54 pm 23:54 Clear 30 -1.1 24 -4.4 79 79 NNE 8 13 30.45 1031 10 16 N/A

Powered by AerisWeather